Tracking 34352 objects as of 8-Jun-2026
HD Live streaming from Space Station
objects crossing your sky now

WILDFIRE 7

Track WILDFIRE 7 now!
10-day predictions


NORAD ID: 57761
Int'l Code: 2023-133F
Perigee: 948.3 km
Apogee: 957.6 km
Inclination: 81.0 °
Period: 104.0 minutes
Semi major axis: 7323 km
RCS: Unknown
Launch date: September 2, 2023
Source: United States (US)
Launch site: AIR FORCE WESTERN TEST RANGE (AFWTR)
Your satellite tracking list
Your tracking list is empty




NASA's NSSDC Master Catalog

Two Line Element Set (TLE):
1 57761U 23133E   26159.11119308  .00000107  00000-0  84878-4 0  9992
2 57761  80.9996  16.6580 0006350  61.7410 298.4387 13.85101331139738
Source of the keplerian elements: AFSPC